STARLINK-1403, 45701

Orbit data source: Space-Track

STARLINK-1403, 45701 is a payload satellite owned by SpaceX/Seattle (US) in LEO that was launched on Thu, 04 Jun 2020 UTC via an FALCON 9 launch vehicle from the Air Force Eastern Test Range (AFETR). Payload-class satellites include a variety of spacecraft equipped with specific instruments for various scientific and technological missions. These include communications satellites like Starlink; space stations such as the ISS; scientific satellites like the Hubble; Earth observation satellites from companies like Planet Labs, Umbra, and HawkEye 360; GPS; miniature CubeSats for education and research; and military/defense satellites.

Loading next visibility...
Identifier
45701, 2020-035AW
Orbit
LEO
Country
Flag of USUS
Related business
Manufacturer
SpaceX/Seattle
Mission
Partially operational Commercial Communications
Bus & Motor
STARLINK, Unknown motor
Mass
260 kg wet, ~248 kg dry
Launch date (UTC)
2020-06-04 (6 years ago)
Launch vehicle
FALCON 9
Launch site
Air Force Eastern Test Range (AFETR)
Object type
Payload
Rocket body
Debris
Shape & HBR
Box + 1 Pan, 10.1 m
Radar Cross Section
13.562 m², Large (>1 m²)

Expand to show TLE details & history
Last TLE update: 13 hours ago

TLE from 13 hours ago
0 STARLINK-1403
1 45701U 20035AW  26162.73649406  .00044986  00000-0  13367-2 0  9996
2 45701  53.1544 319.1390 0001450 243.4289 116.6565 15.34348738333554
Epoch: 2026-06-11T17:40Z
TLE epoch observation values (Epoch: 2026-06-11T17:40:33.086Z)
Latitude
-0.00004°
Longitude
153.92511°
Altitude
464.201 km
Speed
7.635 km/s
True Right ascension
21h 16m 33s
True Declination
0° 00' 00"
Sunlit
Object was in full shadow at epoch
Visualization orbit readout
Latitude
Unknown
Longitude
Unknown
Altitude
Unknown
Speed
Unknown
Apparent Right ascension
Unknown
Apparent Declination
Unknown
Sunlit
N/A
Visualization observer readout
Local Sidereal Time
17:15:02
Azimuth
Unknown
Elevation
Unknown
Doppler factor
Unknown
Orbital elements
Apogee altitude
464.105 km
Perigee altitude
462.121 km
Semi-major axis
6,841.25 km
Eccentricity
0.00015
Inclination
53.1544°
RAAN
319.139°
Arg. of periapsis
243.4289°
True anomaly
116.67135°
Mean anomaly
116.6565°
Eccentric anomaly
116.66392°
Mean motion
3.83566 °/min
Orbital period
93.86 mins
BSTAR
0.0013367
Loading maneuver chart data...
Computing Atmospheric mass density...

Documentation

Showing up to 5 results
|